This is the latest recevied weather packets stored in our database for station/object SV4JYD-14. If no packets are shown the sender has not sent any weather packets the latest 10 day(s).
| Time | Temp. | Humidity | Pressure | Rain* | Wind** | Luminosity | Snow |
|---|---|---|---|---|---|---|---|
| 1777235131 | 18.33° C | 43% | 1015 hPa | 0 mm | - | - | - |
| 1777234231 | 18.33° C | 43% | 1015 hPa | 0 mm | - | - | - |
| 1777233330 | 18.89° C | 42% | 1015 hPa | 0 mm | - | - | - |
| 1777232430 | 17.78° C | 44% | 1015 hPa | 0 mm | - | - | - |
| 1777231530 | 16.67° C | 47% | 1014 hPa | 0 mm | - | - | - |
| 1777230629 | 17.22° C | 48% | 1015 hPa | 0 mm | - | - | - |
| 1777229729 | 18.33° C | 46% | 1014 hPa | 0 mm | - | - | - |
| 1777228829 | 19.44° C | 41% | 1014 hPa | 0 mm | - | - | - |
| 1777227929 | 19.44° C | 40% | 1014 hPa | 0 mm | - | - | - |
| 1777227028 | 19.44° C | 40% | 1014 hPa | 0 mm | - | - | - |
| 1777226128 | 19.44° C | 49% | 1014 hPa | 0 mm | - | - | - |
| 1777225228 | 19.44° C | 49% | 1014 hPa | 0 mm | - | - | - |
| 1777224328 | 20.56° C | 49% | 1013 hPa | 0 mm | - | - | - |
| 1777223427 | 20.56° C | 49% | 1013 hPa | 0 mm | - | - | - |
| 1777222527 | 21.67° C | 49% | 1013 hPa | 0 mm | - | - | - |
| 1777221627 | 21.67° C | 49% | 1013 hPa | 0 mm | - | - | - |
| 1777220727 | 22.22° C | 46% | 1013 hPa | 0 mm | - | - | - |
| 1777219826 | 22.22° C | 46% | 1013 hPa | 0 mm | - | - | - |
| 1777218926 | 22.22° C | 46% | 1013 hPa | 0 mm | - | - | - |
| 1777218026 | 22.22° C | 46% | 1013 hPa | 0 mm | - | - | - |
| 1777217126 | 21.67° C | 53% | 1013 hPa | 0 mm | - | - | - |
| 1777216225 | 22.22° C | 44% | 1013 hPa | 0 mm | - | - | - |
| 1777215325 | 22.22° C | 49% | 1013 hPa | 0 mm | - | - | - |
| 1777214425 | 22.22° C | 49% | 1013 hPa | 0 mm | - | - | - |
| 1777213525 | 22.22° C | 43% | 1013 hPa | 0 mm | - | - | - |
* Rain latest hour (hover to see other rain measurements)
** Current wind speed in m/s (hover to see current wind gust speed)